N5KR Weather Reports


Display with metric or nautical units.
time (UTC)temp
F
wind
direction
speed
MPH
gust
MPH
rain 1hr
in
rain 24hr
in
rain mn
in
humidity
%
barometer
mb
20260508151504 67 178 5.0 8.0 0.00 0.66 0.66 72 1014.8
20260508150504 67 158 4.0 8.0 0.00 0.66 0.66 74 1014.7
20260508150005 67 176 4.0 9.0 0.00 0.66 0.66 74 1014.8
20260508145504 67 184 2.0 5.0 0.00 0.66 0.66 74 1014.8
20260508145004 67 172 5.0 8.0 0.00 0.66 0.66 75 1014.9
20260508144004 65 179 3.0 9.0 0.00 0.66 0.66 78 1014.8
20260508143504 65 181 1.0 7.0 0.00 0.66 0.66 79 1014.9
20260508143004 65 160 2.0 10.0 0.00 0.66 0.66 80 1014.9
20260508142504 65 167 5.0 9.0 0.00 0.66 0.66 81 1014.9
20260508142005 64 174 2.0 9.0 0.01 0.66 0.66 83 1014.9
20260508141505 63 145 1.0 3.0 0.01 0.66 0.66 84 1015.0
20260508141005 64 153 1.0 6.0 0.01 0.66 0.66 83 1015.1
20260508140505 63 162 4.0 10.0 0.01 0.66 0.66 85 1015.1
20260508140005 63 161 5.0 7.0 0.01 0.66 0.66 84 1015.1
20260508135005 63 103 1.0 5.0 0.03 0.66 0.66 87 1014.9
20260508134504 62 162 1.0 2.0 0.03 0.66 0.66 88 1015.0
20260508134005 62 162 2.0 7.0 0.06 0.66 0.66 88 1014.9
20260508133504 61 163 2.0 6.0 0.07 0.66 0.66 89 1014.8
20260508133005 61 161 3.0 5.0 0.07 0.66 0.66 90 1015.0
20260508132504 61 155 2.0 7.0 0.07 0.66 0.66 90 1014.9
20260508132005 61 173 2.0 7.0 0.06 0.64 0.64 91 1015.0
20260508131504 60 176 3.0 5.0 0.07 0.64 0.64 92 1015.0
20260508131004 60 145 0.0 0.0 0.07 0.64 0.64 92 1014.9
20260508130504 60 145 0.0 0.0 0.07 0.64 0.64 92 1015.1
20260508130004 60 145 0.0 0.0 0.07 0.64 0.64 91 1014.9
20260508125505 60 145 0.0 2.0 0.06 0.63 0.63 91 1015.5
20260508125004 60 179 0.0 1.0 0.05 0.62 0.62 91 1015.5
20260508124504 60 179 1.0 3.0 0.05 0.62 0.62 91 1015.0
20260508124004 60 179 1.0 3.0 0.02 0.60 0.60 91 1015.0
20260508123504 60 179 1.0 3.0 0.01 0.59 0.59 90 1015.6
20260508123004 60 180 1.0 2.0 0.01 0.59 0.59 90 1015.6
20260508122004 60 179 0.0 1.0 0.01 0.59 0.59 90 1015.3
20260508121504 60 197 1.0 7.0 0.00 0.57 0.57 90 1015.3
20260508121004 60 178 5.0 7.0 0.05 0.57 0.57 90 1015.1
20260508120504 60 184 5.0 9.0 0.10 0.57 0.57 91 1015.1
20260508115504 60 175 7.0 10.0 0.17 0.57 0.57 92 1015.1
20260508115004 60 172 5.0 7.0 0.20 0.57 0.57 92 1015.4
20260508114504 60 172 3.0 7.0 0.20 0.57 0.57 92 1015.0
20260508114004 60 138 5.0 7.0 0.20 0.57 0.57 92 1014.8
20260508113004 60 170 2.0 7.0 0.20 0.57 0.57 93 1014.8
20260508112504 60 165 2.0 5.0 0.20 0.57 0.57 93 1015.1
20260508112004 60 165 3.0 5.0 0.21 0.57 0.57 92 1014.9
20260508111004 60 119 1.0 5.0 0.30 0.53 0.53 92 1014.7
20260508110504 60 133 2.0 5.0 0.26 0.47 0.47 92 1015.1
20260508110004 60 157 0.0 0.0 0.21 0.41 0.41 92 1015.5
20260508105504 61 264 0.0 0.0 0.20 0.40 0.40 92 1016.0
20260508105004 60 264 0.0 3.0 0.17 0.38 0.38 92 1015.7
20260508104004 60 140 1.0 5.0 0.17 0.38 0.38 92 1015.0
20260508103503 60 16 1.0 3.0 0.17 0.38 0.38 92 1015.6
20260508103004 60 138 0.0 2.0 0.17 0.38 0.38 92 1014.9
20260508102504 60 138 1.0 3.0 0.17 0.38 0.38 91 1014.4
20260508102004 60 138 1.0 5.0 0.16 0.37 0.37 91 1014.5
20260508101004 60 201 2.0 8.0 0.02 0.23 0.23 91 1014.2
20260508100504 60 186 3.0 8.0 0.01 0.21 0.21 91 1014.0
20260508100004 60 169 3.0 7.0 0.01 0.21 0.21 91 1014.0
20260508095504 60 204 2.0 5.0 0.01 0.21 0.21 92 1014.1
20260508095003 60 342 2.0 3.0 0.01 0.21 0.21 92 1014.2
20260508094004 60 342 0.0 1.0 0.01 0.21 0.21 91 1014.4
20260508093504 60 342 0.0 1.0 0.01 0.21 0.21 91 1014.2
20260508093004 60 342 0.0 2.0 0.01 0.21 0.21 91 1014.3
20260508092504 60 342 0.0 1.0 0.01 0.21 0.21 91 1014.5
20260508091504 60 342 1.0 3.0 0.03 0.21 0.21 91 1014.3
20260508091004 60 342 2.0 5.0 0.03 0.21 0.21 91 1014.4
20260508090004 60 342 0.0 0.0 0.05 0.20 0.20 90 1014.5
20260508085504 60 342 0.0 1.0 0.13 0.20 0.20 90 1014.8
20260508085004 60 342 0.0 0.0 0.20 0.20 0.20 90 1014.9
20260508084504 60 342 0.0 1.0 0.20 0.20 0.20 90 1015.3
20260508084004 60 342 1.0 5.0 0.20 0.20 0.20 89 1015.3
20260508083504 60 112 0.0 2.0 0.20 0.20 0.20 89 1014.6
20260508083004 60 112 3.0 9.0 0.20 0.20 0.20 88 1014.0
20260508082504 60 131 5.0 10.0 0.20 0.20 0.20 89 1014.5
20260508082004 60 132 3.0 6.0 0.18 0.18 0.18 89 1015.1
20260508081504 60 116 0.0 0.0 0.17 0.17 0.17 88 1015.5
20260508081004 60 116 0.0 0.0 0.17 0.17 0.17 87 1015.3
20260508080503 61 116 0.0 0.0 0.17 0.17 0.17 86 1015.5
20260508080004 62 116 1.0 3.0 0.15 0.15 0.15 83 1015.5
20260508075506 63 106 1.0 5.0 0.07 0.07 0.07 77 1016.2
20260508074507 63 209 0.0 0.0 0.00 0.00 0.00 76 1016.2
20260508074006 63 159 0.0 0.0 0.00 0.00 0.00 76 1016.3
20260508073507 62 159 0.0 0.0 0.00 0.00 0.00 76 1016.0
20260508073006 62 159 0.0 0.0 0.00 0.00 0.00 76 1015.6
20260508071006 62 159 1.0 1.0 0.00 0.00 0.00 75 1015.8
20260508070006 62 159 0.0 0.0 0.00 0.00 0.00 75 1015.7
20260508065006 62 159 1.0 2.0 0.00 0.00 0.00 75 1015.8
20260508064506 62 159 0.0 0.0 0.00 0.00 0.00 74 1016.0
20260508064006 62 159 0.0 0.0 0.00 0.00 0.00 74 1016.3
20260508063506 63 159 0.0 0.0 0.00 0.00 0.00 74 1016.3
20260508063006 63 159 0.0 0.0 0.00 0.00 0.00 73 1016.4
20260508062506 63 159 0.0 5.0 0.00 0.00 0.00 73 1016.4
20260508062006 63 159 3.0 6.0 0.00 0.00 0.00 73 1016.3
20260508061506 62 159 2.0 6.0 0.00 0.00 0.00 74 1016.4
20260508060507 62 159 0.0 0.0 0.00 0.00 0.00 74 1016.3
20260508060007 62 159 0.0 0.0 0.00 0.00 0.00 75 1016.3
20260508055006 62 159 0.0 0.0 0.00 0.00 0.00 75 1016.2
20260508054507 62 159 0.0 0.0 0.00 0.00 0.00 75 1016.2
20260508054006 62 159 0.0 0.0 0.00 0.00 0.00 75 1016.1
20260508053507 62 159 0.0 0.0 0.00 0.00 0.00 75 1016.1
20260508052507 62 159 0.0 0.0 0.00 0.00 0.00 74 1016.4
20260508052007 62 159 0.0 0.0 0.00 0.00 0.00 74 1016.5
20260508051006 62 159 0.0 0.0 0.00 0.00 0.00 74 1016.3
20260508050506 62 159 0.0 0.0 0.00 0.00 0.00 74 1016.2
20260508050006 62 159 0.0 0.0 0.00 0.00 0.00 74 1016.3
20260508045506 63 159 0.0 0.0 0.00 0.00 0.00 74 1016.3
20260508045006 63 159 0.0 0.0 0.00 0.00 0.00 73 1016.4
20260508044506 63 159 0.0 0.0 0.00 0.00 0.00 73 1016.3
20260508044006 63 159 0.0 0.0 0.00 0.00 0.00 72 1016.2
20260508043507 63 159 0.0 0.0 0.00 0.00 0.00 72 1016.2
20260508043006 63 159 0.0 0.0 0.00 0.00 0.00 72 1016.2
20260508042506 63 159 0.0 0.0 0.00 0.00 0.00 72 1016.2
20260508041506 63 159 0.0 0.0 0.00 0.00 0.00 72 1016.2
20260508041006 63 159 0.0 0.0 0.00 0.00 0.00 71 1016.2
20260508040506 63 159 0.0 0.0 0.00 0.00 0.00 71 1016.4
20260508035506 63 159 0.0 0.0 0.00 0.00 0.00 70 1016.2
20260508035006 64 159 0.0 0.0 0.00 0.00 0.00 70 1016.2
20260508033006 64 159 0.0 0.0 0.00 0.00 0.00 68 1016.0
20260508032506 64 159 0.0 0.0 0.00 0.00 0.00 68 1016.0
20260508031505 64 159 1.0 2.0 0.00 0.00 0.00 68 1016.1
20260508031006 64 159 0.0 6.0 0.00 0.00 0.00 67 1016.0
20260508030505 65 159 1.0 6.0 0.00 0.00 0.00 66 1016.0
20260508030006 65 159 1.0 5.0 0.00 0.00 0.00 66 1015.9
20260508025506 65 159 1.0 5.0 0.00 0.00 0.00 66 1015.9
20260508025006 65 159 1.0 2.0 0.00 0.00 0.00 66 1015.9
20260508024506 65 159 0.0 0.0 0.00 0.00 0.00 66 1015.8
20260508024006 65 159 0.0 0.0 0.00 0.00 0.00 65 1015.9
20260508023506 65 159 0.0 0.0 0.00 0.00 0.00 65 1015.8
20260508022506 65 159 0.0 2.0 0.00 0.00 0.00 64 1015.6
20260508022006 65 159 0.0 2.0 0.00 0.00 0.00 64 1015.6
20260508021506 66 159 1.0 2.0 0.00 0.00 0.00 63 1015.5
20260508021006 66 159 2.0 6.0 0.00 0.00 0.00 63 1015.5
20260508020506 66 159 2.0 5.0 0.00 0.00 0.00 62 1015.3
20260508020006 66 159 2.0 5.0 0.00 0.00 0.00 62 1015.3
20260508015006 66 159 4.0 7.0 0.00 0.00 0.00 62 1015.5
20260508014506 66 190 4.0 6.0 0.00 0.00 0.00 61 1015.6
20260508014006 66 165 5.0 7.0 0.00 0.00 0.00 61 1015.6
20260508013506 66 165 5.0 7.0 0.00 0.00 0.00 61 1015.5
20260508011506 67 161 6.0 10.0 0.00 0.00 0.00 61 1015.6
20260508011006 67 162 8.0 13.0 0.00 0.00 0.00 61 1015.5
20260508010506 67 167 6.0 9.0 0.00 0.00 0.00 61 1015.5
20260508010006 67 172 5.0 9.0 0.00 0.00 0.00 61 1015.3
20260508005506 68 178 7.0 14.0 0.00 0.00 0.00 60 1015.3
20260508005006 68 163 7.0 13.0 0.00 0.00 0.00 61 1015.4
20260508004006 68 162 6.0 12.0 0.00 0.00 0.00 60 1015.4
20260508002506 69 158 4.0 13.0 0.00 0.00 0.00 60 1015.5
20260508002005 69 164 7.0 12.0 0.00 0.00 0.00 60 1015.6
20260508001505 69 170 7.0 14.0 0.00 0.00 0.00 59 1015.6
20260508001005 70 168 7.0 15.0 0.00 0.00 0.00 59 1015.5
20260508000506 71 189 7.0 10.0 0.00 0.00 0.00 57 1015.5
20260507235005 72 107 5.0 8.0 0.00 0.00 0.00 49 1015.3
20260507234506 72 113 5.0 9.0 0.00 0.00 0.00 49 1015.4
20260507234005 72 128 3.0 7.0 0.00 0.00 0.00 49 1015.3
20260507233006 72 157 2.0 7.0 0.00 0.00 0.00 51 1015.4
20260507232506 72 111 4.0 7.0 0.00 0.00 0.00 49 1015.4
20260507231506 73 110 4.0 9.0 0.00 0.00 0.00 50 1015.5
20260507231005 73 108 3.0 8.0 0.00 0.00 0.00 49 1015.6
20260507230006 73 157 5.0 9.0 0.00 0.00 0.00 48 1015.4
20260507225506 73 156 3.0 6.0 0.00 0.00 0.00 46 1015.4
20260507225005 73 178 2.0 5.0 0.00 0.00 0.00 45 1015.4
20260507224506 73 178 0.0 3.0 0.00 0.00 0.00 44 1015.6
20260507224006 74 178 1.0 2.0 0.00 0.00 0.00 45 1015.7
20260507223506 74 178 1.0 5.0 0.00 0.00 0.00 44 1015.7
20260507222506 74 153 1.0 6.0 0.00 0.00 0.00 44 1015.7
20260507222006 74 110 3.0 7.0 0.00 0.00 0.00 46 1015.8
20260507221505 74 171 3.0 6.0 0.00 0.00 0.00 45 1015.7
20260507221006 74 171 4.0 6.0 0.00 0.00 0.00 43 1015.7
20260507220505 74 171 3.0 5.0 0.00 0.00 0.00 42 1015.8
20260507215505 74 142 2.0 5.0 0.00 0.00 0.00 43 1015.9
20260507215005 74 98 3.0 5.0 0.00 0.00 0.00 43 1016.0
20260507214505 74 46 2.0 6.0 0.00 0.00 0.00 43 1016.1
20260507214006 74 14 2.0 5.0 0.00 0.00 0.00 43 1016.0
20260507212005 74 14 1.0 6.0 0.00 0.00 0.00 43 1016.2
20260507211505 75 347 4.0 8.0 0.00 0.00 0.00 43 1016.2
20260507210505 75 5 4.0 8.0 0.00 0.00 0.00 43 1016.4
20260507210006 75 2 3.0 7.0 0.00 0.00 0.00 44 1016.2
20260507205005 75 62 3.0 8.0 0.00 0.00 0.00 43 1016.2
20260507204505 75 66 3.0 9.0 0.00 0.00 0.00 43 1016.2
20260507203505 75 19 2.0 6.0 0.00 0.00 0.00 44 1016.3
20260507203006 75 275 0.0 3.0 0.00 0.00 0.00 42 1016.5
20260507202506 75 348 3.0 6.0 0.00 0.00 0.00 42 1016.5
20260507202006 75 19 3.0 6.0 0.00 0.00 0.00 43 1016.5
20260507201505 74 89 2.0 7.0 0.00 0.00 0.00 43 1016.7
20260507200505 74 117 4.0 8.0 0.00 0.00 0.00 44 1016.8
20260507200005 74 21 3.0 7.0 0.00 0.00 0.00 45 1016.7
20260507195505 74 9 1.0 7.0 0.00 0.00 0.00 45 1016.9
20260507195005 75 0 5.0 13.0 0.00 0.00 0.00 43 1016.8
20260507194505 75 339 4.0 12.0 0.00 0.00 0.00 43 1017.1
20260507194005 75 343 5.0 13.0 0.00 0.00 0.00 44 1017.2
20260507193505 75 352 3.0 8.0 0.00 0.00 0.00 45 1017.1
20260507192505 74 12 5.0 12.0 0.00 0.00 0.00 44 1017.4
20260507192005 74 13 2.0 8.0 0.00 0.00 0.00 45 1017.4
20260507191505 74 336 5.0 15.0 0.00 0.00 0.00 45 1017.4
20260507190505 74 42 6.0 12.0 0.00 0.00 0.00 45 1017.5
20260507190005 73 4 6.0 15.0 0.00 0.00 0.00 44 1017.5
20260507185505 73 332 5.0 10.0 0.00 0.00 0.00 45 1017.6
20260507185005 74 87 7.0 13.0 0.00 0.00 0.00 45 1017.6
20260507184505 73 24 6.0 13.0 0.00 0.00 0.00 44 1017.7
20260507184005 72 7 6.0 13.0 0.00 0.00 0.00 44 1017.8
20260507183505 73 1 6.0 13.0 0.00 0.00 0.00 43 1017.8
20260507183005 73 47 5.0 12.0 0.00 0.00 0.00 48 1018.1
20260507182505 72 49 3.0 8.0 0.00 0.00 0.00 45 1018.0
20260507182005 72 39 3.0 12.0 0.00 0.00 0.00 47 1018.2
20260507181504 72 45 7.0 13.0 0.00 0.00 0.00 46 1018.3
20260507180005 72 48 6.0 12.0 0.00 0.00 0.00 48 1018.5
20260507175505 71 11 5.0 12.0 0.00 0.00 0.00 48 1018.5
20260507175005 71 27 5.0 13.0 0.00 0.00 0.00 48 1018.7
20260507174505 70 57 6.0 13.0 0.00 0.00 0.00 49 1018.8
20260507174005 70 356 3.0 13.0 0.00 0.00 0.00 49 1018.9
20260507173505 70 78 3.0 9.0 0.00 0.00 0.00 51 1019.1
20260507173005 69 73 4.0 9.0 0.00 0.00 0.00 52 1019.2
20260507172505 70 30 4.0 8.0 0.00 0.00 0.00 52 1019.4
20260507172005 69 54 2.0 8.0 0.00 0.00 0.00 52 1019.5
20260507171005 69 26 5.0 9.0 0.00 0.00 0.00 50 1019.7
20260507170505 69 24 3.0 6.0 0.00 0.00 0.00 54 1019.8
20260507170005 68 23 3.0 13.0 0.00 0.00 0.00 53 1019.8
20260507165005 68 70 7.0 12.0 0.00 0.00 0.00 53 1019.9
20260507164505 67 358 2.0 9.0 0.00 0.00 0.00 54 1020.0
20260507163505 67 21 3.0 10.0 0.00 0.00 0.00 53 1020.0
20260507163005 67 77 2.0 12.0 0.00 0.00 0.00 53 1020.0
20260507162005 67 73 5.0 13.0 0.00 0.00 0.00 56 1019.8
20260507161505 67 48 3.0 9.0 0.00 0.00 0.00 56 1019.9
20260507161004 66 18 6.0 10.0 0.00 0.00 0.00 56 1020.0
20260507160505 66 19 3.0 8.0 0.00 0.00 0.00 55 1019.9
20260507160005 66 60 4.0 8.0 0.00 0.00 0.00 56 1020.1
20260507154504 66 16 5.0 8.0 0.00 0.01 0.00 55 1020.1
20260507154005 65 90 5.0 9.0 0.00 0.01 0.00 59 1020.2
20260507153505 64 350 6.0 13.0 0.00 0.05 0.00 58 1020.3
20260507153004 65 10 5.0 10.0 0.00 0.13 0.00 59 1020.2
20260507152504 64 46 5.0 13.0 0.00 0.13 0.00 59 1020.3
20260507152005 65 8 4.0 9.0 0.00 0.13 0.00 59 1020.4